Find Starlink 1281

NORAD ID: 45370 Int'l Des: 2020-019 Owner: SPXS Country: US Constellation: starlink operational
LEOCIRCULAR

現在のビュー

3D地球を読み込み中...

About Starlink 1281

Starlink 1281 (NORAD 45370) is a starlink constellation satellite (v1.0) launched Mar 18, 2020 by SPXS of US. It operates in LEO, CIRCULAR orbit with a mass of 260.00 kg.

次回通過

Passes for default location (London). Set your location on the main map for personalized predictions.

高度履歴

Loading altitude history...

軌道要素

1 45370U 20019L 26263.44729209 .00036850 00000-0 80867-3 0 9991
2 45370 53.1540 332.8748 0004207 41.6054 318.5272 15.43717661359687
Epoch: Sep 20, 2026 • Age: 14 hours

現在のステータス

高度 439.7 km
遠地点 / 近地点 N/A
速度 7.66 km/s
衛星直下点 53.25°N, 46.95°E
打ち上げ日 Mar 18, 2020
運用期間 6.5 years
タイプ internet

技術仕様

分類 Payload
質量 260.00 kg
乾燥質量 248.00 kg
長さ 0.20 m
スパン 9.00 m
形状 ? Box + pan
製造者 SPXS
バスタイプ Starlink
フェーズステータス In Orbit
所有者/国 SPXS/US

Most Searched